sat.trackr.live / text

‹ back to catalog

STARLINK-6144

NORAD 56894 · 2023-083U

PAYLOAD ACTIVE UNKNOWN

§ Identity

Operator
Country
US
Launch date
2023-06-12
Launch site
AFETR
Launch vehicle
Mass (kg)
RCS (m²)

Purposes: comms

External: N2YO · Heavens-Above · Gunter

§ Orbital elements

Epoch: 2026-09-19T18:42:31.817088Z

Period
94.27 min
Inclination
43.0032°
Eccentricity
0.0001287
Mean motion
15.27569851 rev/d
Perigee alt
482.2 km
Apogee alt
484.0 km
Semi-major
6,861.2 km
B*
-2.2456e-5
RAAN
72.5097°
Arg perigee
267.7821°
Mean anomaly
92.2884°
Rev number
18,139

§ Raw data

STARLINK-61441 56894U 23083U   26262.77953492 -.00000880  00000+0 -22456-4 0  99922 56894  43.0032  72.5097 0001287 267.7821  92.2884 15.27569851181391

JSON: /api/v1/satellites/56894 · /tle

For live sub-satellite position, see the globe view (requires WebGL).

§ Visibility from observer

Set your observer location to see the next 7 days of passes ≥ 10°. The values pass through the URL so the page stays shareable.

No JS? Fill the form by hand. The geolocation button needs JavaScript.